This is the latest recevied weather packets stored in our database for station/object WV8BRW. If no packets are shown the sender has not sent any weather packets the latest 10 day(s).
| Time | Temp. | Humidity | Pressure | Rain* | Wind** | Luminosity | Snow |
|---|---|---|---|---|---|---|---|
| 1777247109 | 16.11° C | 77% | 1015.1 hPa | 0 mm | - | 20 W/m² | - |
| 1777246806 | 16.11° C | 76% | 1015.3 hPa | 0 mm | - | 23 W/m² | - |
| 1777246502 | 16.11° C | 75% | 1015.3 hPa | 0 mm | - | 26 W/m² | - |
| 1777246199 | 16.67° C | 75% | 1015.3 hPa | 0 mm | - | 31 W/m² | - |
| 1777245896 | 16.67° C | 75% | 1015.3 hPa | 0 mm | - | 32 W/m² | - |
| 1777245595 | 16.67° C | 75% | 1015.3 hPa | 0 mm | - | 34 W/m² | - |
| 1777245290 | 16.67° C | 75% | 1015.4 hPa | 0 mm | - | 37 W/m² | - |
| 1777244986 | 16.67° C | 73% | 1015.4 hPa | 0 mm | - | 42 W/m² | - |
| 1777244682 | 17.22° C | 73% | 1015.5 hPa | 0 mm | - | 51 W/m² | - |
| 1777244378 | 17.22° C | 72% | 1015 hPa | 0 mm | - | 52 W/m² | - |
| 1777244075 | 17.22° C | 72% | 1015.5 hPa | 0 mm | - | 49 W/m² | - |
| 1777243773 | 16.67° C | 74% | 1015.4 hPa | 0 mm | - | 49 W/m² | - |
| 1777243470 | 17.22° C | 72% | 1015.1 hPa | 0 mm | - | 54 W/m² | - |
| 1777243166 | 17.22° C | 71% | 1015.4 hPa | 0 mm | - | 61 W/m² | - |
| 1777242862 | 17.22° C | 71% | 1015.3 hPa | 0 mm | - | 63 W/m² | - |
| 1777242560 | 17.78° C | 69% | 1015.1 hPa | 0 mm | - | 181 W/m² | - |
| 1777242255 | 17.22° C | 70% | 1015.4 hPa | 0 mm | - | 254 W/m² | - |
| 1777241953 | 17.78° C | 70% | 1015.6 hPa | 0 mm | - | 252 W/m² | - |
| 1777241650 | 18.33° C | 69% | 1015.5 hPa | 0 mm | - | 272 W/m² | - |
| 1777241347 | 18.33° C | 68% | 1015.3 hPa | 0 mm | - | 289 W/m² | - |
| 1777241044 | 18.33° C | 68% | 1015.3 hPa | 0 mm | - | 300 W/m² | - |
| 1777240742 | 17.78° C | 70% | 1015.5 hPa | 0 mm | - | 353 W/m² | - |
| 1777240440 | 17.78° C | 70% | 1015.4 hPa | 0 mm | - | 371 W/m² | - |
| 1777240137 | 17.78° C | 70% | 1015.6 hPa | 0 mm | - | 388 W/m² | - |
| 1777239835 | 17.78° C | 71% | 1015.7 hPa | 0 mm | - | 410 W/m² | - |
* Rain latest hour (hover to see other rain measurements)
** Current wind speed in m/s (hover to see current wind gust speed)